Regional Weather Roundup
Issued by NWS Sioux Falls, SD

Home | Current Version | Previous Version | Graphics & Text | Print | Product List | Glossary Off
Versions: 1 2 3 4 5 6 7 8 9 10 11 12 13 14 15 16 17 18 19 20 21 22 23 24 25 26 27 28 29 30 31 32 33 34 35 36 37 38 39 40 41 42 43 44 45 46 47 48 49 50

000
ASUS43 KFSD 220610
RWRFSD

WEATHER ROUNDUP FOR SE SOUTH DAKOTA/SW MINNESOTA/NW IOWA
NATIONAL WEATHER SERVICE SIOUX FALLS SD
100 AM CDT SUN OCT 22 2017

NOTE: "FAIR" INDICATES FEW OR NO CLOUDS BELOW 12,000 FEET WITH NO
SIGNIFICANT WEATHER AND OR OBSTRUCTIONS TO VISIBILITY.


SDZ038>040-050-052>070-220700-
SOUTHEAST SOUTH DAKOTA

CITY           SKY/WX    TMP DP  RH WIND       PRES   REMARKS
BROOKINGS      CLEAR     43  38  82 W10       29.91F
CHAMBERLAIN    CLEAR     43  35  74 W6        29.96S
6HR MIN TEMP:  38; 6HR MAX TEMP:  54;

HURON          CLEAR     41  36  82 SW7       29.91F
6HR MIN TEMP:  41; 6HR MAX TEMP:  50;

MADISON        FAIR      41  37  87 W7        29.93S
MITCHELL       CLEAR     43  36  76 SW8       29.95F
6HR MIN TEMP:  43; 6HR MAX TEMP:  53;

SIOUX FALLS    CLEAR     43  37  79 W5        29.95S
6HR MIN TEMP:  43; 6HR MAX TEMP:  52;

WINNER         FAIR      43  28  55 SW8       29.98S
YANKTON        CLEAR     43  35  73 S5        29.98R
$$

MNZ071-072-080-081-089-090-097-098-220700-
SOUTHWEST MINNESOTA

CITY           SKY/WX    TMP DP  RH WIND       PRES   REMARKS
FAIRMONT       CLOUDY    48  42  80 W8        29.92S
JACKSON        PTCLDY    43  37  81 SW7       29.93F
LUVERNE        CLEAR     43  36  75 W8        29.94S
MARSHALL       CLEAR     46  39  76 W10       29.90R
6HR MIN TEMP:  46; 6HR MAX TEMP:  54;

MONTEVIDEO     CLEAR     46  39  76 W8        29.87S
PIPESTONE      CLEAR     39  36  87 W6        29.92S
REDWOOD FALLS  PTCLDY    46  39  76 SW9       29.89R
TRACY          CLEAR     47  40  76 W8        29.91S
WORTHINGTON    CLEAR     43  38  82 W7        29.93F
$$

IAZ001>003-012>014-020>022-031-032-NEZ013-014-SDZ071-220700-
NORTHWEST IOWA

CITY           SKY/WX    TMP DP  RH WIND       PRES   REMARKS
CHEROKEE       CLOUDY    42  41  94 S3        29.97R
DENISON        CLOUDY    46  43  87 CALM      30.00R
ESTHERVILLE    CLOUDY    44  42  93 W6        29.93S
LE MARS        MOCLDY    41  39  93 CALM      29.97R
ORANGE CITY    PTCLDY    43  39  87 W5        29.95S
SHELDON        PTCLDY    43  39  87 W6        29.93S
SIOUX CITY     PTCLDY    41  39  93 W3        29.99R
6HR MIN TEMP:  41; 6HR MAX TEMP:  53;

SPENCER        PTCLDY    42  39  89 W6        29.94F
6HR MIN TEMP:  42; 6HR MAX TEMP:  54; 6HR PCP: TRACE;

STORM LAKE     CLOUDY    45  41  87 SW8       29.97R
$$

ABBREVIATIONS USED IN REMARKS
   TC - TEMPERATURE IN CELSIUS
  WCI - WIND CHILL INDEX
   HX - HEAT INDEX
  VSB - VISIBILITY





USA.gov is the U.S. government's official web portal to all federal, state and local government web resources and services.